Waarnemingen

Advertentie
Mijn weer
Liscombe, Groot Brittannië (3710): temperatuur & dauwpunt: 14.11.2018 11:00:00 - 20.11.2018 11:00:00 (GMT)Liscombe, Groot Brittannië (3710): temperatuur -20cm & temperatuur -100cm: 14.11.2018 11:00:00 - 20.11.2018 11:00:00 (GMT)Liscombe, Groot Brittannië (3710): windsnelheid & windstoten: 14.11.2018 11:00:00 - 20.11.2018 11:00:00 (GMT)Liscombe, Groot Brittannië (3710): windrichting: 14.11.2018 11:00:00 - 20.11.2018 11:00:00 (GMT)Liscombe, Groot Brittannië (3710): luchtdruk: 14.11.2018 11:00:00 - 20.11.2018 11:00:00 (GMT)Liscombe, Groot Brittannië (3710): zicht: 14.11.2018 11:00:00 - 20.11.2018 11:00:00 (GMT)Liscombe, Groot Brittannië (3710): Zonneschijnduur: 14.11.2018 11:00:00 - 20.11.2018 11:00:00 (GMT)Liscombe, Groot Brittannië (3710): neerslag: 14.11.2018 11:00:00 - 20.11.2018 11:00:00 (GMT)
Datum & Tijd tt [°C] td [°C] tt -20cm [°C] tt -100cm [°C] ff [km/u] ff [kn] fx [km/u] fx [kn] dd ppp [hPa] vv [km] sd [min] rr [mm]
20.11.2018 11:00:00 3,6 0,8 - - 26 14 52 28 ONO 1009,6 30 0 0,0
20.11.2018 10:00:00 3,1 0,6 - - 34 18 52 28 ONO 1010,0 30 0 0,0
20.11.2018 09:00:00 3,0 0,3 8,9 10,4 28 15 55 30 ONO 1010,6 29 0 0,0
20.11.2018 08:00:00 2,9 -0,3 - - 35 19 57 31 ONO 1010,9 30 0 0,0
20.11.2018 07:00:00 2,9 -0,1 - - 34 18 54 29 ONO 1011,2 30 0 0,0
20.11.2018 06:00:00 3,1 -0,3 - - 35 19 61 33 ONO 1011,6 35 0 0,0
20.11.2018 05:00:00 3,0 -0,1 - - 29 16 48 26 ONO 1012,3 30 0 0,0
20.11.2018 04:00:00 3,0 0,8 - - 26 14 50 27 ONO 1012,5 30 0 0,0
20.11.2018 03:00:00 3,0 0,8 - - 35 19 50 27 ONO 1013,0 30 0 0,0
20.11.2018 02:00:00 2,9 0,9 - - 28 15 50 27 ONO 1013,7 30 0 0,0
20.11.2018 01:00:00 3,3 1,1 - - 28 15 54 29 ONO 1014,2 30 0 0,0
20.11.2018 00:00:00 3,5 1,3 - - 24 13 50 27 ONO 1014,9 35 - 0,0
19.11.2018 23:00:00 3,8 1,4 - - 35 19 52 28 ONO 1015,1 30 0 0,0
19.11.2018 22:00:00 4,0 2,1 - - 28 15 52 28 ONO 1015,7 35 0 0,0
19.11.2018 21:00:00 4,3 2,9 - - 26 14 52 28 ONO 1016,1 30 0 0,0
19.11.2018 20:00:00 4,2 2,5 - - 34 18 54 29 ONO 1016,5 30 0 0,0
19.11.2018 19:00:00 3,4 1,2 - - 24 13 48 26 ONO 1017,1 35 0 0,0
19.11.2018 18:00:00 4,0 1,6 - - 18 10 - - ONO 1017,5 40 0 0,0
19.11.2018 17:00:00 4,3 1,2 - - 22 12 - - ONO 1017,7 35 0 0,0
19.11.2018 16:00:00 4,9 1,9 - - 26 14 - - ONO 1018,1 40 30 0,0
19.11.2018 15:00:00 5,1 1,6 - - 31 17 50 27 O 1018,2 40 24 0,0
19.11.2018 14:00:00 5,1 1,8 - - 28 15 46 25 O 1018,9 35 0 0,0
19.11.2018 13:00:00 5,0 1,5 - - 24 13 - - O 1019,8 30 0 0,0
19.11.2018 12:00:00 5,1 1,5 - - 28 15 46 25 O 1020,3 30 0 0,0
19.11.2018 11:00:00 4,5 1,4 - - 28 15 52 28 O 1020,8 30 0 0,0
19.11.2018 10:00:00 4,3 1,7 - - 29 16 57 31 O 1020,9 27 0 0,0
19.11.2018 09:00:00 4,0 1,5 9,4 10,7 31 17 50 27 O 1021,1 26 0 0,0
19.11.2018 08:00:00 3,7 1,8 - - 29 16 55 30 O 1021,5 19 0 0,0
19.11.2018 07:00:00 3,4 2,3 - - 26 14 - - O 1021,6 12 0 0,0
19.11.2018 06:00:00 2,8 1,4 - - 24 13 46 25 O 1022,2 15 0 0,0
19.11.2018 05:00:00 2,2 0,8 - - 21 11 - - O 1022,3 22 0 0,0
19.11.2018 04:00:00 2,8 0,6 - - 35 19 48 26 ONO 1022,6 27 0 0,0
19.11.2018 03:00:00 2,5 0,5 - - 28 15 - - NO 1023,2 26 0 0,0
19.11.2018 02:00:00 3,1 0,2 - - 28 15 52 28 ONO 1023,3 30 0 0,0
19.11.2018 01:00:00 3,3 0,7 - - 28 15 48 26 ONO 1023,8 27 0 0,0
19.11.2018 00:00:00 3,3 1,4 - - 31 17 - - ONO 1024,2 22 - 0,0
18.11.2018 23:00:00 3,7 1,5 - - 29 16 - - ONO 1024,0 24 0 0,0
18.11.2018 22:00:00 4,0 1,8 - - 24 13 - - ONO 1024,1 21 0 0,0
18.11.2018 21:00:00 4,5 2,2 - - 26 14 46 25 ONO 1024,2 21 0 0,0
18.11.2018 20:00:00 5,1 3,0 - - 34 18 48 26 ONO 1024,1 19 0 0,0
18.11.2018 19:00:00 5,3 3,3 - - 31 17 52 28 ONO 1024,4 19 0 0,0
18.11.2018 18:00:00 5,6 3,4 - - 34 18 46 25 ONO 1024,5 21 0 0,0
18.11.2018 17:00:00 6,0 3,5 - - 34 18 50 27 ONO 1024,4 20 6 0,0
18.11.2018 16:00:00 6,5 3,9 - - 34 18 50 27 ONO 1024,3 19 60 0,0
18.11.2018 15:00:00 7,0 4,2 - - 28 15 - - ONO 1024,2 17 60 0,0
18.11.2018 14:00:00 7,5 4,2 - - 26 14 - - ONO 1024,3 18 60 0,0
18.11.2018 13:00:00 7,4 3,4 - - 24 13 - - ONO 1024,7 21 60 0,0
18.11.2018 12:00:00 6,8 3,3 - - 28 15 - - ONO 1024,9 18 60 0,0
18.11.2018 11:00:00 5,5 2,9 - - 28 15 - - ONO 1025,6 15 60 0,0
18.11.2018 10:00:00 4,7 2,5 - - 28 15 - - ONO 1025,8 13 48 0,0
18.11.2018 09:00:00 3,7 1,6 10,0 10,7 24 13 - - ONO 1025,8 15 0 0,0
18.11.2018 08:00:00 2,5 1,5 - - 31 17 48 26 ONO 1025,7 9 0 0,0
18.11.2018 07:00:00 2,6 1,9 - - 34 18 - - ONO 1025,3 6 0 0,0
18.11.2018 06:00:00 3,3 2,1 - - 31 17 - - ONO 1025,1 9 0 0,0
18.11.2018 05:00:00 3,7 2,8 - - 24 13 - - O 1024,7 10 0 0,0
18.11.2018 04:00:00 3,8 2,9 - - 24 13 - - O 1024,9 9 0 0,0
18.11.2018 03:00:00 3,7 3,0 - - 22 12 - - O 1024,8 8 0 0,0
18.11.2018 02:00:00 3,8 3,1 - - 26 14 - - O 1024,7 7 0 0,0
18.11.2018 01:00:00 3,7 2,9 - - 29 16 48 26 O 1024,8 6 0 0,0
18.11.2018 00:00:00 3,9 3,2 - - 28 15 54 29 O 1024,7 6 - 0,0
17.11.2018 23:00:00 4,3 3,4 - - 31 17 57 31 O 1024,4 7 0 0,0
17.11.2018 22:00:00 4,6 3,5 - - 39 21 65 35 O 1024,2 8 0 0,0
17.11.2018 21:00:00 4,8 2,6 - - 41 22 63 34 O 1023,5 14 0 0,0
17.11.2018 20:00:00 5,9 2,7 - - 41 22 61 33 O 1022,9 17 0 0,0
17.11.2018 19:00:00 6,2 3,4 - - 37 20 54 29 O 1023,1 14 0 0,0
17.11.2018 18:00:00 6,3 3,0 - - 37 20 54 29 O 1023,2 16 0 0,0
17.11.2018 17:00:00 5,7 3,3 - - 31 17 - - O 1023,4 14 6 0,0
17.11.2018 16:00:00 6,6 3,8 - - 28 15 - - ONO 1023,4 14 60 0,0
17.11.2018 15:00:00 7,4 4,4 - - 26 14 - - O 1023,4 17 60 0,0
17.11.2018 14:00:00 7,9 5,7 - - 24 13 - - O 1023,4 18 60 0,0
17.11.2018 13:00:00 7,6 6,0 - - 21 11 - - OZO 1023,9 16 54 0,0
17.11.2018 12:00:00 5,9 5,7 - - 16 9 - - O 1024,6 12 0 0,0
17.11.2018 11:00:00 5,7 5,7 - - 18 10 - - O 1024,8 9 0 0,2
17.11.2018 10:00:00 6,3 6,3 - - 21 11 - - O 1024,7 0,2 0 0,0
17.11.2018 09:00:00 6,3 6,3 10,4 10,7 21 11 - - O 1024,6 0,7 0 0,0
17.11.2018 08:00:00 7,2 7,2 - - 13 7 - - O 1024,5 0,1 0 0,0
17.11.2018 07:00:00 7,4 7,4 - - 16 9 - - O 1023,7 0,2 0 0,0
17.11.2018 06:00:00 7,7 7,7 - - 15 8 - - O 1023,9 0,1 0 0,0
17.11.2018 05:00:00 7,9 7,9 - - 16 9 - - OZO 1024,0 0,2 0 0,0
17.11.2018 04:00:00 8,2 8,2 - - 15 8 - - O 1024,0 0,2 0 0,2
17.11.2018 03:00:00 8,6 8,6 - - 16 9 - - O 1024,2 0,2 0 0,0
17.11.2018 02:00:00 8,7 8,7 - - 18 10 - - OZO 1024,1 0,1 0 0,0
17.11.2018 01:00:00 8,6 8,6 - - 13 7 - - OZO 1024,2 0,1 0 0,0
17.11.2018 00:00:00 8,6 8,6 - - 18 10 - - OZO 1023,9 0,1 - 0,0
16.11.2018 23:00:00 8,9 8,9 - - 15 8 - - OZO 1024,0 0,1 0 0,0
16.11.2018 22:00:00 9,4 9,4 - - 15 8 - - OZO 1023,8 0,1 0 0,0
16.11.2018 21:00:00 9,5 9,5 - - 16 9 - - OZO 1023,5 0,1 0 0,0
16.11.2018 20:00:00 9,6 9,6 - - 15 8 - - OZO 1023,2 0,1 0 0,0
16.11.2018 19:00:00 10,0 10,0 - - 16 9 - - OZO 1023,3 0,1 0 0,0
16.11.2018 18:00:00 10,3 10,3 - - 9 5 - - ZO 1023,2 0,1 0 0,0
16.11.2018 17:00:00 10,3 10,3 - - 13 7 - - ZO 1023,0 0,8 0 0,0
16.11.2018 16:00:00 10,6 10,6 - - 15 8 - - ZO 1022,7 0,1 0 0,0
16.11.2018 15:00:00 10,9 10,9 - - 16 9 - - ZO 1022,7 0,1 0 0,0
16.11.2018 14:00:00 11,2 11,2 - - 15 8 - - ZZO 1022,7 0,1 0 0,0
16.11.2018 13:00:00 11,3 11,3 - - 15 8 - - ZO 1022,8 0,2 0 0,0
16.11.2018 12:00:00 11,5 11,5 - - 16 9 - - ZZO 1022,8 4,5 0 0,0
16.11.2018 11:00:00 11,4 11,4 - - 15 8 - - ZO 1023,2 2,0 0 0,0
16.11.2018 10:00:00 11,3 11,3 - - 11 6 - - ZO 1023,3 1,3 0 0,0
16.11.2018 09:00:00 11,0 11,0 10,0 10,7 13 7 - - ZO 1023,1 0,2 0 0,0
16.11.2018 08:00:00 10,8 10,8 - - 11 6 - - ZO 1023,0 0,2 0 0,0
16.11.2018 07:00:00 10,6 10,6 - - 8 4 - - ZO 1022,6 2,5 0 0,0
16.11.2018 06:00:00 10,5 10,5 - - 9 5 - - ZZO 1021,9 3,3 0 0,0
16.11.2018 05:00:00 10,4 10,4 - - 9 5 - - ZO 1021,4 2,2 0 0,0
16.11.2018 04:00:00 10,4 10,4 - - 9 5 - - Z 1021,2 0,2 0 0,0
16.11.2018 03:00:00 10,4 10,3 - - 11 6 - - ZZO 1020,9 2,3 0 0,0
16.11.2018 02:00:00 10,2 10,2 - - 8 4 - - Z 1021,4 0,2 0 0,2
16.11.2018 01:00:00 10,4 10,4 - - 11 6 - - ZZW 1021,3 0,1 0 0,0
16.11.2018 00:00:00 10,4 10,4 - - 9 5 - - ZZO 1021,0 0,2 - 0,0
15.11.2018 23:00:00 10,4 10,4 - - 9 5 - - Z 1020,4 0,1 0 0,2
15.11.2018 22:00:00 10,4 10,4 - - 9 5 - - Z 1020,4 0,3 0 0,0
15.11.2018 21:00:00 10,4 10,4 - - 16 9 - - Z 1019,7 3,4 0 0,0
15.11.2018 20:00:00 10,7 10,7 - - 15 8 - - Z 1018,8 3,2 0 0,2
15.11.2018 19:00:00 10,8 10,8 - - 13 7 - - Z 1018,5 0,1 0 0,0
15.11.2018 18:00:00 10,7 10,7 - - 13 7 - - Z 1018,4 0,1 0 0,0
15.11.2018 17:00:00 10,8 10,8 - - 16 9 - - Z 1018,2 0,1 0 0,0
15.11.2018 16:00:00 11,1 11,1 - - 15 8 - - Z 1017,8 - 0 0,0
15.11.2018 15:00:00 11,2 11,2 - - 11 6 - - ZZO 1017,8 - 0 0,0
15.11.2018 14:00:00 11,1 11,1 - - 21 11 - - Z 1018,2 2,7 0 0,0
15.11.2018 13:00:00 10,6 10,4 - - 16 9 - - Z 1018,4 5 0 0,0
15.11.2018 12:00:00 10,2 10,0 - - 13 7 - - ZZO 1018,6 6 0 0,0
15.11.2018 11:00:00 9,7 9,4 - - 15 8 - - ZZO 1018,9 7 0 0,0
15.11.2018 10:00:00 9,4 9,3 - - 13 7 - - ZZO 1019,2 5 0 0,0
15.11.2018 09:00:00 9,2 9,1 9,9 10,7 13 7 - - ZZO 1019,0 8 0 0,0
15.11.2018 08:00:00 8,6 8,6 - - 13 7 - - ZO 1018,7 6 0 0,0
15.11.2018 07:00:00 8,2 8,1 - - 9 5 - - ZO 1018,6 5 0 0,0
15.11.2018 06:00:00 8,5 8,5 - - 11 6 - - ZZO 1018,5 6 0 0,0
15.11.2018 05:00:00 8,5 8,5 - - 13 7 - - Z 1018,4 8 0 0,0
15.11.2018 04:00:00 8,4 8,3 - - 13 7 - - Z 1018,6 9 0 0,0
15.11.2018 03:00:00 7,8 7,8 - - 13 7 - - Z 1018,8 6 0 0,0
15.11.2018 02:00:00 7,4 7,1 - - 9 5 - - Z 1019,1 12 0 0,0
15.11.2018 01:00:00 7,8 7,3 - - 11 6 - - ZZO 1018,9 21 0 0,0
15.11.2018 00:00:00 7,4 7,1 - - 9 5 - - ZZO 1019,3 14 - 0,0
14.11.2018 23:00:00 7,7 7,2 - - 9 5 - - ZZO 1019,3 20 0 0,0
14.11.2018 22:00:00 7,9 6,9 - - 15 8 - - Z 1019,5 23 0 0,0
14.11.2018 21:00:00 7,9 6,5 - - 15 8 - - Z 1019,5 28 0 0,0
14.11.2018 20:00:00 8,3 6,5 - - 15 8 - - Z 1019,7 30 0 0,0
14.11.2018 19:00:00 8,1 6,3 - - 18 10 - - Z 1019,3 30 0 0,0
14.11.2018 18:00:00 8,8 7,0 - - 18 10 - - Z 1019,0 30 0 0,0
14.11.2018 17:00:00 9,3 7,3 - - 21 11 - - Z 1018,8 35 0 0,0
14.11.2018 16:00:00 10,0 7,2 - - 21 11 - - Z 1018,9 35 6 0,0
14.11.2018 15:00:00 10,6 7,3 - - 22 12 - - ZZW 1018,9 40 6 0,0
14.11.2018 14:00:00 10,8 7,3 - - 21 11 46 25 ZZW 1019,0 40 0 0,0
14.11.2018 13:00:00 10,8 7,2 - - 24 13 - - Z 1019,3 35 0 0,0
14.11.2018 12:00:00 11,0 8,1 - - 24 13 - - Z 1019,7 35 0 0,0
14.11.2018 11:00:00 10,2 8,3 - - 22 12 - - Z 1020,3 35 0 0,0

tt = temperatuur
td = dauwpunt
tt -20cm = temperatuur -20cm
tt -100cm = temperatuur -100cm
ff = windsnelheid
fx = windstoten
dd = windrichting
ppp = luchtdruk
vv = zicht
sd = Zonneschijnduur
rr = neerslag

Weerstations in de omgeving